SL-8 R/B, 2802

Orbit data source: Space-Track

SL-8 R/B, 2802 is space debris in LEO originally from a launch on Mon, 15 May 1967 UTC launched from the Plesetsk Missile And Space Complex (PKMTR). Debris objects in space refer to the collection of defunct objects orbiting the Earth. Examples of debris include non-operational satellites, rocket bodies, and fragments generated from explosions, collisions, or faulty payload assembly.

Loading next visibility...
Identifier
2802, 1967-045B
Orbit
LEO
Country
Flag of CISCIS
Related business
Manufacturer
Yuzhnoe
Mission
Spacecraft
Bus & Motor
S3, Unknown motor
Mass
1,434 kg wet, 1,434 kg dry
Launch date (UTC)
1967-05-15 (58 years ago)
Launch vehicle
Unknown
Launch site
Plesetsk Missile And Space Complex (PKMTR)
Object type
Payload
Rocket body
Debris
Shape & HBR
Cyl, 2.1 m
Radar Cross Section
10.179 m², Large (>1 m²)

Expand to show TLE details & history
Last TLE update: 12 hours ago

TLE from 12 hours ago
0 SL-8 R/B
1 02802U 67045B   25245.67792970  .00000585  00000-0  16983-3 0  9997
2 02802  74.0138 339.1609 0064020  30.8270 329.6621 14.45422485 61858
Epoch: 2025-09-02T16:16Z
TLE epoch observation values (Epoch: 2025-09-02T16:16:13.126Z)
Latitude
-0.00005°
Longitude
113.04047°
Altitude
703.995 km
Speed
7.525 km/s
True Right ascension
22h 36m 38s
True Declination
0° 00' 00"
Sunlit
Object was in full shadow at epoch
Visualization orbit readout
Latitude
Unknown
Longitude
Unknown
Altitude
Unknown
Speed
Unknown
Apparent Right ascension
Unknown
Apparent Declination
Unknown
Sunlit
N/A
Visualization observer readout
Local Sidereal Time
19:44:38
Azimuth
Unknown
Elevation
Unknown
Doppler factor
Unknown
Orbital elements
Apogee altitude
783.813 km
Perigee altitude
692.695 km
Semi-major axis
7,116.391 km
Eccentricity
0.0064
Inclination
74.0138°
RAAN
339.1609°
Arg. of periapsis
30.827°
True anomaly
329.28898°
Mean anomaly
329.6621°
Eccentric anomaly
329.4758°
Mean motion
3.61538 °/min
Orbital period
99.57 mins
BSTAR
0.00016983
Loading maneuver chart data...
Computing Atmospheric mass density...
Loading historical data...
Loading historical data...
Loading historical data...
Loading historical data...
Loading historical data...
Loading historical data...
Loading historical data...
Other satellites on launch #45 in the year 1967 (1967-05-15 UTC)

Documentation

Showing up to 5 results
|